www.pogodaiklimat.ru

Погода и климат >> Архив погоды >> Бразилия >> Парана >> Инасио-Мартинс


ПОГОДА в Инасио-Мартинсе

  • Прогноз погоды в Инасио-Мартинсе
  • Монитор погоды в Инасио-Мартинсе

АРХИВ ПОГОДЫ в Инасио-Мартинсе

Время (UTC), дата Ветер
(напр.,м/с)
 
Видим.   Явления Облачность Т
(С)
Тd
(С)
f
(%)
Тe
(С)
Тes
(С)
Комфортность P
(гПа)
Po
(гПа)
Тmin
(С)
Tmax
(С)
R
(мм)
R24
(мм)
S
(см)
22 12.09
{4}
н/о н/о +19.7 +15.6 77 1016.1 882.4
23 12.09
{3}
н/о н/о +19.4 +15.0 76 1016.6 882.7
00 13.09 С 1
{3}
н/о н/о +18.8 +15.0 79 +21 +21 комфорт 1017.6 883.3
01 13.09 штиль 0
{1}
н/о н/о +18.3 +15.0 81 +19 +19 1018.8 884.1
02 13.09 В 1
{4}
н/о н/о +17.6 +15.1 85 +19 +19 1018.4 883.5
03 13.09 Ю 1
{4}
н/о н/о +17.9 +14.9 83 +20 +20 1017.5 882.8
04 13.09 СЗ 1
{1}
н/о н/о +17.0 +15.3 90 +18 +18 1018.3 883.1
05 13.09 ЮЗ 1
{1}
н/о н/о +16.9 +15.3 90 +18 +18 1017.6 882.5
06 13.09 СЗ 1
{2}
н/о н/о +16.4 +15.3 93 +18 +18 1017.6 882.3
07 13.09 С 1
{2}
н/о н/о +16.0 +15.4 96 +17 +17 1017.8 882.3
08 13.09 СЗ 1
{1}
н/о н/о +15.9 +15.3 96 +17 +17 1018.3 882.7
09 13.09 СЗ 1
{2}
н/о н/о +15.1 +14.6 97 +16 +16 1019.2 883.1
10 13.09 З 1
{2}
н/о н/о +15.0 +14.5 97 +15 +15 1020.2 883.9
11 13.09 З 1
{3}
н/о н/о +15.5 +14.5 94 +16 +16 1020.5 884.4
12 13.09 З 1
{3}
н/о н/о +15.4 +14.9 97 +16 +16 1021.2 885.0
13 13.09 З 1
{2}
н/о н/о +15.6 +15.1 97 +16 +16 1021.5 885.3
14 13.09 ЮЗ 1
{2}
н/о н/о +16.1 +15.1 94 +17 +17 1021.2 885.3
15 13.09 З 2
{3}
н/о н/о +15.4 +14.8 96 +15 +15 1021.5 885.2
16 13.09 З 2
{3}
н/о н/о +15.0 +14.5 97 +15 +15 1021.3 884.9
17 13.09 З 1
{3}
н/о н/о +14.5 +14.1 97 +15 +15 1020.9 884.3
18 13.09 ЮЗ 2
{3}
н/о н/о +15.9 +14.5 91 +16 +16 1019.6 883.8
19 13.09 ЮЗ 2
{3}
н/о н/о +15.6 +14.3 92 +16 +16 1019.5 883.6
20 13.09 ЮЗ 2
{3}
н/о н/о +15.2 +13.9 92 +15 +15 1020.1 883.9
21 13.09 ЮЗ 2
{4}
н/о н/о +14.5 +13.5 94 +14 +14 1020.6 884.0
22 13.09 ЮЗ 2
{4}
н/о н/о +14.2 +13.4 95 +14 +14 1021.2 884.4
23 13.09 ЮЗ 3
{4}
н/о н/о +13.5 +13.0 97 +12 +12 1022.0 884.8
00 14.09 ЮЗ 2
{4}
н/о н/о +13.2 +12.8 97 +12 +12 1022.7 885.3
01 14.09 ЮЗ 2
{4}
н/о н/о +12.8 +12.5 98 +12 +12 1023.4 885.7
02 14.09 ЮЗ 2
{4}
н/о н/о +12.4 +12.2 99 +11 +11 1023.8 885.9
03 14.09 ЮЗ 2
{4}
н/о н/о +12.0 +11.8 99 +11 +11 1024.0 885.9
04 14.09 ЮЗ 2
{4}
н/о н/о +11.6 +11.4 99 +10 +10 1023.9 885.6
05 14.09 ЮЗ 3
{4}
н/о н/о +11.4 +11.2 99 +10 +10 1023.2 884.9
06 14.09 ЮЗ 2
{5}
н/о н/о +11.3 +11.1 99 +10 +10 1022.5 884.3 0.2
07 14.09 ЮЗ 2
{5}
н/о н/о +11.2 +11.0 99 +10 +10 1022.4 884.1
08 14.09 ЮЗ 2
{4}
н/о н/о +11.2 +11.0 99 +10 +10 1022.5 884.2
09 14.09 ЮЗ 2
{3}
н/о н/о +11.2 +11.0 99 +10 +10 1022.5 884.2
10 14.09 ЮЗ 2
{3}
н/о н/о +11.1 +11.0 99 +10 +10 1023.1 884.7
11 14.09 ЮЗ 2
{3}
н/о н/о +11.4 +11.2 99 +10 +10 1023.4 885.1
12 14.09 ЮЗ 2
{3}
н/о н/о +11.7 +11.5 99 +11 +11 1023.5 885.3
13 14.09 Ю 1
{3}
н/о н/о +12.9 +12.7 99 +13 +13 1022.8 885.2
14 14.09 ЮЗ 1
{2}
н/о н/о +14.5 +14.3 99 +15 +15 1021.6 884.9
15 14.09 ЮЗ 1
{3}
н/о н/о +18.9 +15.6 81 +21 +21 комфорт 1018.9 884.5
16 14.09 Ю 2
{3}
н/о н/о +19.8 +14.7 72 +23 +23 комфорт 1017.6 883.7
17 14.09 ЮЗ 1
{3}
н/о н/о +21.0 +15.2 69 +25 +25 комфорт 1016.3 883.1
18 14.09 Ю 2
{3}
н/о н/о +21.6 +15.3 67 +25 +25 комфорт 1015.3 882.5
19 14.09 ЮЗ 2
{4}
н/о н/о +20.9 +15.4 71 +25 +25 комфорт 1015.4 882.3
20 14.09 ЮЗ 2
{4}
н/о н/о +20.5 +15.6 73 +24 +24 комфорт 1015.9 882.6
21 14.09 З 2
{3}
н/о н/о +18.8 +15.1 79 +21 +21 комфорт 1016.9 882.7
22 14.09 ЮЗ 2
{3}
н/о н/о +17.4 +14.9 85 +18 +18 1018.4 883.4
23 14.09 ЮЗ 2
{4}
н/о н/о +16.4 +14.6 89 +17 +17 1019.2 883.7
00 15.09 ЮЗ 1
{3}
н/о н/о +15.5 +14.3 93 +16 +16 1020.3 884.2
01 15.09 Ю 1
{3}
н/о н/о +14.5 +13.8 96 +15 +15 1020.9 884.3
02 15.09 Ю 1
{2}
н/о н/о +14.4 +13.9 97 +15 +15 1020.7 884.1
03 15.09 Ю 1
{2}
н/о н/о +14.2 +13.7 97 +14 +14 1020.7 884.0
04 15.09 ЮЗ 1
{2}
н/о н/о +13.9 +13.6 98 +15 +15 1020.6 883.8
05 15.09 ЮЗ 1
{2}
н/о н/о +13.6 +13.3 98 +14 +14 1020.2 883.3
06 15.09 ЮЗ 1
{2}
н/о н/о +13.4 +13.2 99 +13 +13 1019.6 882.7
07 15.09 ЮЗ 1
{3}
н/о н/о +13.5 +13.3 99 +14 +14 1019.0 882.2
08 15.09 З 1
{2}
н/о н/о +13.3 +13.1 99 +13 +13 1019.5 882.6
09 15.09 ЮЗ 1
{2}
н/о н/о +13.2 +13.0 99 +13 +13 1019.9 882.9
10 15.09 Ю 2
{3}
н/о н/о +13.4 +13.2 99 +13 +13 1020.5 883.5
11 15.09 Ю 2
{4}
н/о н/о +13.7 +13.5 99 +13 +13 1020.8 883.9
12 15.09 Ю 2
{5}
н/о н/о +14.2 +14.0 99 +14 +14 1020.9 884.2
13 15.09 Ю 2
{4}
н/о н/о +15.0 +14.8 99 +15 +15 1020.4 884.1
14 15.09 Ю 2
{4}
н/о н/о +18.2 +17.9 98 +19 +19 1018.6 883.9
15 15.09 Ю 3
{4}
н/о н/о +20.4 +16.1 76 +24 +24 комфорт 1017.0 883.5
16 15.09 Ю 3
{5}
н/о н/о +22.9 +16.0 65 +27 +27 душно 1015.1 882.9
17 15.09 Ю 3
{5}
н/о н/о +23.7 +15.6 60 +27 +27 жарко 1013.9 882.2
18 15.09 ЮВ 2
{5}
н/о н/о +26.0 +16.5 56 +30 +30 душно 1012.2 881.6
19 15.09 ЮВ 2
{5}
н/о н/о +25.1 +14.8 53 +28 +28 жарко 1012.5 881.5
20 15.09 ЮВ 1
{4}
н/о н/о +25.2 +16.0 57 +29 +29 душно 1012.6 881.6
21 15.09 Ю 1
{2}
н/о н/о +23.3 +16.3 65 +28 +28 душно 1013.5 881.6
22 15.09 Ю 1
{2}
н/о н/о +22.0 +15.1 65 +26 +26 душно 1014.3 881.8
23 15.09 Ю 1
{2}
н/о н/о +21.1 +14.8 67 +24 +24 комфорт 1015.3 882.3
00 16.09 Ю 2
{3}
н/о н/о +22.6 +15.4 64 +27 +27 душно 1015.2 882.8
01 16.09 Ю 2
{4}
н/о н/о +22.4 +14.9 63 +26 +26 жарко 1015.4 882.9
02 16.09 Ю 2
{3}
н/о н/о +21.7 +14.6 64 +25 +25 комфорт 1015.7 882.9
03 16.09 Ю 1
{3}
н/о н/о +21.3 +14.5 65 +24 +24 комфорт 1015.8 882.8
04 16.09 Ю 1
{3}
н/о н/о +20.5 +14.4 68 +24 +24 комфорт 1015.8 882.5
05 16.09 Ю 1
{2}
н/о н/о +19.7 +14.3 71 +23 +23 комфорт 1015.6 882.0
06 16.09 Ю 1
{2}
н/о н/о +20.1 +14.0 68 +23 +23 комфорт 1014.9 881.5
07 16.09 Ю 1
{2}
н/о н/о +19.9 +14.2 70 +23 +23 комфорт 1014.5 881.1
08 16.09 Ю 2
{3}
н/о н/о +19.8 +14.0 69 +22 +22 комфорт 1014.6 881.1
09 16.09 Ю 2
{3}
н/о н/о +20.3 +13.9 67 +23 +23 комфорт 1015.2 881.9
10 16.09 Ю 2
{3}
н/о н/о +20.7 +14.3 67 +24 +24 комфорт 1015.7 882.5
11 16.09 Ю 2
{4}
н/о н/о +22.1 +14.4 62 +25 +25 комфорт 1015.5 882.9
12 16.09 Ю 2
{4}
н/о н/о +23.0 +14.5 59 +27 +27 душно 1015.3 883.1
13 16.09 Ю 2
{5}
н/о н/о +23.7 +14.6 57 +26 +26 жарко 1015.2 883.3
14 16.09 ЮВ 2
{4}
н/о н/о +26.1 +15.5 52 +29 +29 жарко 1014.2 883.4
15 16.09 ЮВ 2
{4}
н/о н/о +27.8 +15.5 47 +31 +31 душно 1012.7 882.8
16 16.09 В 3
{5}
н/о н/о +28.2 +11.3 35 +29 +29 жарко 1012.2 882.5
17 16.09 ЮВ 2
{7}
н/о н/о +28.9 +11.7 34 +30 +30 жарко 1011.2 881.9
18 16.09 Ю 2
{5}
н/о н/о +29.2 +11.9 34 +30 +30 жарко 1010.4 881.3
19 16.09 ЮВ 2
{4}
н/о н/о +28.5 +12.0 36 +30 +30 жарко 1010.6 881.2
20 16.09 ЮВ 1
{3}
н/о н/о +27.7 +12.8 40 +29 +29 жарко 1010.8 881.1
21 16.09 ЮВ 1
{3}
н/о н/о +25.6 +11.8 42 +27 +27 жарко 1012.1 881.4
22 16.09 В 1
{3}
н/о н/о +23.3 +11.6 48 +26 +26 жарко 1013.5 881.6
23 16.09 В 1
{2}
н/о н/о +23.5 +11.3 46 +25 +25 комфорт 1013.4 881.6
00 17.09 ЮВ 1
{2}
н/о н/о +23.3 +9.5 41 +25 +25 комфорт 1013.8 881.9
01 17.09 Ю 1
{2}
н/о н/о +22.2 +10.1 46 +24 +24 комфорт 1014.2 881.8
02 17.09 Ю 1
{2}
н/о н/о +22.2 +9.8 45 +24 +24 комфорт 1014.0 881.6
03 17.09 Ю 1
{2}
н/о н/о +21.7 +9.7 46 +23 +23 комфорт 1014.1 881.5
04 17.09 Ю 1
{2}
н/о н/о +21.7 +9.8 47 +23 +23 комфорт 1013.8 881.2
05 17.09 Ю 1
{2}
н/о н/о +21.9 +10.0 47 +24 +24 комфорт 1013.2 880.8
06 17.09 Ю 2
{3}
н/о н/о +23.1 +8.8 40 +24 +24 комфорт 1011.8 880.1
07 17.09 ЮВ 2
{3}
н/о н/о +22.7 +8.4 40 +24 +24 комфорт 1011.2 879.4
08 17.09 ЮВ 2
{3}
н/о н/о +22.7 +7.6 38 +24 +24 комфорт 1011.1 879.3
09 17.09 ЮВ 2
{4}
н/о н/о +23.0 +7.1 36 +24 +24 комфорт 1010.9 879.3
10 17.09 ЮВ 2
{4}
н/о н/о +23.0 +7.0 36 +24 +24 комфорт 1011.2 879.5
11 17.09 ЮВ 2
{4}
н/о н/о +24.0 +7.9 36 +24 +24 комфорт 1011.0 879.8
12 17.09 ЮВ 2
{4}
н/о н/о +25.4 +9.3 36 +26 +26 жарко 1010.6 880.0
13 17.09 ЮВ 2
{4}
н/о н/о +26.1 +11.2 39 +27 +27 жарко 1009.8 879.6
14 17.09 ЮВ 2
{4}
н/о н/о +27.5 +12.2 39 +29 +29 жарко 1008.6 879.1
15 17.09 Ю 2
{4}
н/о н/о +29.0 +10.2 31 +29 +29 жарко 1006.9 878.2
16 17.09 ЮВ 3
{6}
н/о н/о +29.8 +8.4 26 +29 +29 жарко 1006.0 877.7
17 17.09 ЮВ 3
{6}
н/о н/о +30.2 +9.6 28 +30 +30 жарко 1004.7 876.8
18 17.09 ЮВ 2
{5}
н/о н/о +29.0 +9.2 29 +29 +29 жарко 1004.6 876.2
19 17.09 В 2
{5}
н/о н/о +29.2 +7.7 26 +28 +28 жарко 1004.3 876.0
20 17.09 ЮВ 2
{5}
н/о н/о +28.5 +8.3 28 +28 +28 жарко 1004.8 876.2
21 17.09 В 2
{5}
н/о н/о +27.0 +8.1 30 +27 +27 жарко 1005.4 876.1
22 17.09 ЮВ 2
{5}
н/о н/о +26.3 +7.5 30 +26 +26 жарко 1005.7 876.1
23 17.09 В 2
{5}
н/о н/о +26.4 +6.8 29 +26 +26 жарко 1005.8 876.2
00 18.09 В 2
{4}
н/о н/о +25.8 +7.1 30 +26 +26 жарко 1006.5 876.6
01 18.09 В 2
{5}
н/о н/о +25.7 +6.8 30 +26 +26 жарко 1006.3 876.4
02 18.09 В 2
{5}
н/о н/о +24.3 +7.4 34 +25 +25 комфорт 1007.1 876.5
03 18.09 В 2
{4}
н/о н/о +23.8 +9.3 40 +25 +25 комфорт 1007.4 876.5
04 18.09 В 2
{4}
н/о н/о +23.1 +11.3 47 +25 +25 комфорт 1006.8 875.7
05 18.09 В 3
{6}
н/о н/о +24.4 +10.7 42 +26 +26 жарко 1005.3 875.0
06 18.09 В 3
{6}
н/о н/о +24.1 +9.8 40 +25 +25 комфорт 1004.9 874.5
07 18.09 В 2
{6}
н/о н/о +19.5 +12.5 64 +22 +22 комфорт 1007.0 874.4
08 18.09 В 2
{4}
н/о н/о +20.9 +13.8 64 +24 +24 комфорт 1006.8 874.8
09 18.09 В 2
{5}
н/о н/о +20.2 +14.6 70 +23 +23 комфорт 1007.7 875.3
10 18.09 В 2
{4}
н/о н/о +19.8 +15.0 74 +22 +22 комфорт 1008.7 876.0
11 18.09 В 2
{4}
н/о н/о +19.8 +14.9 73 +23 +23 комфорт 1009.2 876.4
12 18.09 СВ 2
{4}
н/о н/о +20.0 +15.1 73 +23 +23 комфорт 1009.5 876.8
13 18.09 СВ 2
{4}
н/о н/о +21.3 +15.8 71 +25 +25 комфорт 1009.0 876.9
14 18.09 СВ 3
{4}
н/о н/о +22.9 +15.4 63 +27 +27 душно 1008.4 877.0
15 18.09 СВ 1
{4}
н/о н/о +23.7 +15.4 60 +27 +27 жарко 1007.5 876.6
16 18.09 СВ 2
{3}
н/о н/о +25.0 +13.9 50 +27 +27 жарко 1006.0 875.8
17 18.09 СВ 2
{4}
н/о н/о +26.4 +13.9 46 +29 +29 жарко 1004.4 875.0
18 18.09 В 2
{4}
н/о н/о +25.4 +13.2 47 +27 +27 жарко 1004.4 874.6
20 18.09 С 2
{6}
н/о н/о +15.5 +14.7 95 +15 +15 1011.4 876.5 7
21 18.09 Ю 1
{4}
н/о н/о +15.0 +14.5 97 +15 +15 1011.6 876.5 4
22 18.09 Ю 2
{3}
н/о н/о +14.3 +13.9 97 +14 +14 1011.2 875.8 8
23 18.09 Ю 2
{3}
н/о н/о +13.6 +13.3 98 +13 +13 1011.5 875.8
00 19.09 ЮЗ 1
{3}
н/о н/о +13.7 +13.4 98 +15 +15 1012.0 876.2
01 19.09 Ю 2
{4}
н/о н/о +13.7 +13.5 99 +13 +13 1012.2 876.4
02 19.09 Ю 2
{4}
н/о н/о +14.4 +14.2 99 +14 +14 1011.7 876.3
03 19.09 Ю 2
{3}
н/о н/о +14.8 +14.6 99 +15 +15 1011.3 876.1 0.2
04 19.09 ЮВ 1
{3}
н/о н/о +14.5 +14.3 99 +15 +15 1011.1 875.8
05 19.09 Ю 2
{3}
н/о н/о +14.4 +14.2 99 +14 +14 1010.6 875.3
06 19.09 Ю 2
{3}
н/о н/о +14.4 +14.2 99 +14 +14 1010.2 875.0
07 19.09 Ю 2
{3}
н/о н/о +14.9 +14.7 99 +14 +14 1009.5 874.6
08 19.09 Ю 1
{3}
н/о н/о +15.0 +14.7 98 +15 +15 1010.0 875.1
09 19.09 Ю 2
{3}
н/о н/о +15.0 +14.8 99 +15 +15 1010.4 875.4 0.8
10 19.09 Ю 2
{4}
н/о н/о +14.9 +14.7 99 +14 +14 1010.8 875.7
11 19.09 ЮВ 1
{3}
н/о н/о +15.0 +14.8 99 +15 +15 1012.0 876.8 0.2
12 19.09 Ю 2
{4}
н/о н/о +15.2 +15.0 99 +15 +15 1011.2 876.2 1
13 19.09 ЮЗ 1
{4}
н/о н/о +15.2 +15.0 99 +16 +16 1011.7 876.6 6
14 19.09 ЮВ 1
{3}
н/о н/о +16.2 +16.0 99 +17 +17 1010.6 876.1 2
15 19.09 ЮВ 1
{3}
н/о н/о +15.9 +15.7 99 +17 +17 1010.4 875.8 0.2
16 19.09 Ю 2
{4}
н/о н/о +16.3 +16.0 98 +16 +16 1009.5 875.2 4
17 19.09 Ю 2
{4}
н/о н/о +16.6 +16.4 99 +17 +17 1009.3 875.2 0.6
18 19.09 Ю 2
{5}
н/о н/о +17.2 +16.9 98 +18 +18 1007.5 873.9 1
19 19.09 Ю 3
{5}
н/о н/о +16.8 +16.6 99 +17 +17 1007.9 874.0 4
20 19.09 Ю 2
{6}
н/о н/о +16.9 +16.7 99 +17 +17 1007.3 873.6
21 19.09 Ю 3
{5}
н/о н/о +16.6 +16.3 98 +16 +16 1007.5 873.6
22 19.09 Ю 3
{5}
н/о н/о +16.7 +16.4 98 +17 +17 1007.3 873.5

 

Местоположение метеостанции Инасио-Мартинс (Парана, Бразилия): широта -25.57 долгота -51.08 высота над уровнем моря 1262 м.

В архиве по умолчанию представлена погода в Инасио-Мартинсе за последнюю неделю. Архивные данные за месяц целиком и за предыдущие месяцы, начиная с января 2011 года, Вы можете получить, выбрав интересующий диапазон дат из раскрывающегося списка и нажав кнопку "Ввод!".


*Определитесь, кто Вы:
робот инопланетянин человек

Внимание! Время в таблицах - всемирное. Для получения местного времени необходимо прибавить поправку, которая равна -3 ч.

Смотрите также архив погоды в соседних городах и на ближайших метеорологических станциях:

Погода в Ирати (Парана, Бразилия) (47 км)
Погода в Иваи (Парана, Бразилия) (65 км)
Погода в Сан-Матеус-ду-Суле (Парана, Бразилия) (77 км)
Погода в Женерал-Карнейру (Парана, Бразилия) (96 км)
Погода в Майор-Виейра (Санта-Катарина, Бразилия) (116 км)
Погода в Иваи (Парана, Бразилия) (133 км)
Погода в Кастро (Парана, Бразилия) (141 км)
Погода в Касадоре (Санта-Катарина, Бразилия) (141 км)
Погода в Нова-Тебасе (Парана, Бразилия) (155 км)
Погода в Клевеландии (Парана, Бразилия) (158 км)

Пояснения к столбцам:

Ветер - указаны скорость ветра в м/с - средняя за 10 мин, порывы в срок и между сроками (в фигурных скобках) и направление, откуда дует ветер: С - северный, СВ - северо-восточный, В - восточный, ЮВ - юго-восточный, Ю - южный, ЮЗ - юго-западный, З - западный, СЗ - северо-западный.
Видимость - горизонтальная дальность видимости в метрах или километрах. При видимости от 1 до 10 км при отсутствии осадков обычно наблюдается дымка, при ухудшении видимости до 1 км и менее - туман. В сухую погоду видимость может ухудшаться дымом, пылью или мглою.
Явления - указаны атмосферные явления, наблюдавшиеся в срок или в последний час перед сроком; фигурными скобками обозначены явления, наблюдавшиеся между сроками (за 1-3 часа до срока); квадратными скобками обозначены град или гололедные отложения с указанием их диаметра в мм.
Облачность - указаны через наклонную черту общая и нижняя облачность в баллах и высота нижней границы облаков в метрах; квадратными скобками обозначены формы облаков: Ci - перистые, Cs - перисто-слоистые, Cc - перисто-кучевые, Ac - высококучевые, As - высокослоистые, Sc - слоисто-кучевые, Ns - слоисто-дождевые, Cu - кучевые, Cb - кучево-дождевые. Подробнее классификацию облаков см. в Атласе облаков (PDF).
T - Температура воздуха - температура, измеренная на высоте 2 м над землей.
Td - Температура точки росы - температура, при понижении до которой содержащийся в воздухе водяной пар достигнет насыщения.
f - Относительная влажность воздуха - влажноcть воздуха, измеренная на высоте 2 м над землей.
Te - Эффективная температура - температура, которую ощущает одетый по сезону человек в тени. Характеристика душности погоды. При расчете учитывается влияние влажности воздуха и скорости ветра на теплоощущения человека.
Tes - Эффективная температура на солнце - температура, которую ощущает человек, с поправкой на солнечный нагрев. Характеристика знойности погоды. Зависит от высоты солнца над горизонтом, облачности и скорости ветра. Ночью, в пасмурную погоду, а также при ветре 12 м/с и более поправка равна нулю.
P - Атмосферное давление - приведенное к уровню моря атмосферное давление.
Po - Атмосферное давление - измеренное на уровне метеостанции атмосферное давление.
Tmin - Минимальная температура - минимум температуры воздуха на высоте 2 м над землей.
Tmax - Максимальная температура - максимум температуры воздуха на высоте 2 м над землей.
R - Количество осадков - Количество выпавших осадков за период времени, мм. При наведении курсора мыши на число - период времени, за который выпало указанное количество осадков.
R24 - Количество осадков - Количество выпавших осадков за 24 часа, мм.
S - Снежный покров - Высота снежного покрова, см. При наведении курсора мыши на число - состояние снежного покрова и степень покрытия местности в баллах.